When you browse on this site, cookies collect data to enhance your experience and personalize the content and advertising you see.
Visit our Privacy Policy to learn more. By continuing to use the site, you agree to this use of cookies and data.
  • In United Kingdom
  • List of Countries
  • For 7 days
  • Water Temperature
  • Satellite Maps
  • Weather Map
  • Weather Widgets
  • user-avatar
    Login

    Hourly Weather Uida

    Today, 14 December, Friday

    Time Temperature Precipitation Wind Pressure Humidity
    00:00 +29°C° 0 mm 2 mps 758 mmHg 76%
    01:00 +29°C° 0 mm 2 mps 758 mmHg 77%
    02:00 +28°C° 0 mm 2 mps 758 mmHg 79%
    03:00 +28°C° 0 mm 2 mps 758 mmHg 81%
    04:00 +28°C° 0 mm 1 mps 758 mmHg 83%
    05:00 +27°C° 0 mm 1 mps 758 mmHg 85%
    06:00 +27°C° 0 mm 1 mps 758 mmHg 86%
    07:00 +30°C° 0 mm 1 mps 758 mmHg 75%
    08:00 +30°C° 0 mm 0 mps 758 mmHg 65%
    09:00 +33°C° 0 mm 0 mps 758 mmHg 55%
    10:00 +36°C° 0 mm 1 mps 758 mmHg 47%
    11:00 +37°C° 0 mm 1 mps 758 mmHg 40%
    12:00 +40°C° 0 mm 2 mps 757 mmHg 33%
    13:00 +39°C° 0 mm 3 mps 757 mmHg 37%
    14:00 +38°C° 0 mm 4 mps 756 mmHg 42%
    15:00 +37°C° 0 mm 5 mps 756 mmHg 46%
    16:00 +36°C° 0 mm 5 mps 756 mmHg 54%
    17:00 +34°C° 0 mm 5 mps 756 mmHg 61%
    18:00 +32°C° 0 mm 5 mps 757 mmHg 69%
    19:00 +32°C° 0 mm 5 mps 757 mmHg 72%
    20:00 +30°C° 0 mm 5 mps 758 mmHg 75%
    21:00 +30°C° 0 mm 4 mps 758 mmHg 78%
    22:00 +30°C° 0 mm 4 mps 758 mmHg 79%
    23:00 +29°C° 0 mm 4 mps 758 mmHg 81%

    Tomorrow, 15 December, Saturday

    Time Temperature Precipitation Wind Pressure Humidity
    00:00 +29°C° 0 mm 4 mps 758 mmHg 82%
    01:00 +29°C° 0 mm 4 mps 758 mmHg 83%
    02:00 +29°C° 0 mm 3 mps 758 mmHg 85%
    03:00 +28°C° 0 mm 3 mps 757 mmHg 86%
    04:00 +28°C° 0 mm 3 mps 758 mmHg 87%
    05:00 +28°C° 0 mm 3 mps 758 mmHg 88%
    06:00 +28°C° 0 mm 3 mps 759 mmHg 89%
    07:00 +29°C° 0 mm 3 mps 759 mmHg 80%
    08:00 +31°C° 0 mm 3 mps 760 mmHg 72%
    09:00 +33°C° 0 mm 3 mps 760 mmHg 63%
    10:00 +36°C° 0 mm 2 mps 760 mmHg 56%
    11:00 +38°C° 0 mm 2 mps 759 mmHg 48%
    12:00 +40°C° 0 mm 2 mps 759 mmHg 40%
    13:00 +39°C° 0 mm 2 mps 758 mmHg 40%
    14:00 +39°C° 0 mm 3 mps 757 mmHg 41%
    15:00 +38°C° 0 mm 4 mps 757 mmHg 41%
    16:00 +36°C° 0 mm 4 mps 757 mmHg 52%
    17:00 +34°C° 0 mm 4 mps 757 mmHg 62%
    18:00 +32°C° 0 mm 5 mps 757 mmHg 73%
    19:00 +32°C° 0 mm 5 mps 757 mmHg 74%
    20:00 +30°C° 0 mm 5 mps 758 mmHg 75%
    21:00 +30°C° 0 mm 5 mps 758 mmHg 77%
    22:00 +30°C° 0 mm 5 mps 758 mmHg 78%
    23:00 +30°C° 0 mm 4 mps 758 mmHg 80%

    Day after tomorrow, 16 December, Sunday

    Time Temperature Precipitation Wind Pressure Humidity
    00:00 +29°C° 0 mm 4 mps 758 mmHg 82%
    01:00 +29°C° 0 mm 4 mps 758 mmHg 83%
    02:00 +29°C° 0 mm 4 mps 757 mmHg 83%
    03:00 +29°C° 0 mm 4 mps 757 mmHg 84%
    04:00 +29°C° 0 mm 4 mps 757 mmHg 83%
    05:00 +29°C° 0 mm 4 mps 758 mmHg 82%
    06:00 +29°C° 0 mm 4 mps 758 mmHg 81%
    07:00 +30°C° 0 mm 4 mps 758 mmHg 75%
    08:00 +32°C° 0 mm 4 mps 759 mmHg 70%
    09:00 +33°C° 0 mm 4 mps 759 mmHg 65%
    10:00 +34°C° 0.1 mm 3 mps 759 mmHg 61%
    11:00 +35°C° 0.1 mm 3 mps 758 mmHg 57%
    12:00 +36°C° 0.1 mm 3 mps 758 mmHg 53%
    13:00 +36°C° 0 mm 3 mps 757 mmHg 51%
    14:00 +37°C° 0 mm 4 mps 756 mmHg 48%
    15:00 +37°C° 0 mm 4 mps 756 mmHg 46%
    16:00 +36°C° 0 mm 4 mps 756 mmHg 54%
    17:00 +34°C° 0 mm 4 mps 756 mmHg 62%
    18:00 +32°C° 0 mm 5 mps 757 mmHg 70%
    19:00 +32°C° 0 mm 4 mps 757 mmHg 72%
    20:00 +30°C° 0 mm 4 mps 758 mmHg 75%
    21:00 +30°C° 0 mm 4 mps 759 mmHg 77%
    22:00 +30°C° 0 mm 4 mps 758 mmHg 79%
    23:00 +29°C° 0 mm 4 mps 758 mmHg 80%

    17 December, Monday

    Time Temperature Precipitation Wind Pressure Humidity
    00:00 +29°C° 0 mm 4 mps 758 mmHg 82%
    01:00 +29°C° 0 mm 4 mps 757 mmHg 83%
    02:00 +29°C° 0 mm 4 mps 757 mmHg 84%
    03:00 +28°C° 0 mm 4 mps 756 mmHg 86%
    04:00 +28°C° 0 mm 4 mps 757 mmHg 87%
    05:00 +28°C° 0 mm 3 mps 757 mmHg 87%
    06:00 +28°C° 0 mm 3 mps 757 mmHg 88%
    07:00 +29°C° 0 mm 3 mps 758 mmHg 80%
    08:00 +31°C° 0 mm 3 mps 758 mmHg 72%
    09:00 +33°C° 0 mm 3 mps 759 mmHg 64%
    10:00 +34°C° 0.1 mm 3 mps 758 mmHg 61%
    11:00 +35°C° 0.1 mm 3 mps 758 mmHg 57%
    12:00 +36°C° 0.1 mm 3 mps 757 mmHg 53%
    13:00 +36°C° 0.4 mm 3 mps 756 mmHg 52%
    14:00 +37°C° 0.4 mm 3 mps 756 mmHg 50%
    15:00 +37°C° 0.4 mm 4 mps 755 mmHg 49%
    16:00 +35°C° 0.4 mm 4 mps 755 mmHg 57%
    17:00 +33°C° 0.4 mm 4 mps 756 mmHg 65%
    18:00 +30°C° 0.4 mm 4 mps 756 mmHg 73%
    19:00 +30°C° 0 mm 4 mps 757 mmHg 75%
    20:00 +30°C° 0 mm 4 mps 757 mmHg 77%
    21:00 +29°C° 0 mm 4 mps 758 mmHg 79%
    22:00 +29°C° 0 mm 4 mps 758 mmHg 80%
    23:00 +29°C° 0 mm 4 mps 758 mmHg 81%

    18 December, Tuesday

    Time Temperature Precipitation Wind Pressure Humidity
    00:00 +29°C° 0 mm 4 mps 757 mmHg 82%
    01:00 +29°C° 0 mm 4 mps 757 mmHg 82%
    02:00 +29°C° 0 mm 3 mps 756 mmHg 82%
    03:00 +28°C° 0 mm 3 mps 756 mmHg 82%
    04:00 +28°C° 0 mm 3 mps 756 mmHg 82%
    05:00 +28°C° 0 mm 3 mps 757 mmHg 82%
    06:00 +28°C° 0 mm 3 mps 757 mmHg 82%
    07:00 +30°C° 0 mm 3 mps 758 mmHg 74%
    08:00 +31°C° 0 mm 3 mps 758 mmHg 66%
    09:00 +34°C° 0 mm 3 mps 759 mmHg 59%
    10:00 +35°C° 0.1 mm 3 mps 758 mmHg 55%
    11:00 +36°C° 0.1 mm 3 mps 758 mmHg 51%
    12:00 +37°C° 0.1 mm 3 mps 757 mmHg 47%
    13:00 +37°C° 0.5 mm 4 mps 757 mmHg 50%
    14:00 +36°C° 0.5 mm 4 mps 756 mmHg 53%
    15:00 +35°C° 0.5 mm 4 mps 755 mmHg 56%
    16:00 +34°C° 0 mm 4 mps 756 mmHg 60%
    17:00 +33°C° 0 mm 4 mps 756 mmHg 65%
    18:00 +32°C° 0 mm 4 mps 757 mmHg 70%
    19:00 +30°C° 0 mm 4 mps 757 mmHg 72%
    20:00 +30°C° 0 mm 4 mps 758 mmHg 75%
    21:00 +30°C° 0 mm 4 mps 758 mmHg 77%
    22:00 +29°C° 0 mm 4 mps 758 mmHg 78%
    23:00 +29°C° 0 mm 4 mps 758 mmHg 79%

    19 December, Wednesday

    Time Temperature Precipitation Wind Pressure Humidity
    00:00 +29°C° 0 mm 4 mps 758 mmHg 81%
    01:00 +29°C° 0.3 mm 4 mps 757 mmHg 82%
    02:00 +28°C° 0.3 mm 4 mps 757 mmHg 83%
    03:00 +28°C° 0.3 mm 3 mps 756 mmHg 84%
    04:00 +28°C° 0.4 mm 4 mps 757 mmHg 85%
    05:00 +28°C° 0.4 mm 4 mps 757 mmHg 86%
    06:00 +27°C° 0.4 mm 4 mps 757 mmHg 87%
    07:00 +29°C° 0.1 mm 4 mps 758 mmHg 80%
    08:00 +32°C° 0.1 mm 4 mps 758 mmHg 73%
    09:00 +33°C° 0.1 mm 4 mps 759 mmHg 66%
    10:00 +34°C° 0.3 mm 4 mps 758 mmHg 60%
    11:00 +36°C° 0.3 mm 4 mps 758 mmHg 54%
    12:00 +37°C° 0.3 mm 3 mps 757 mmHg 48%
    13:00 +37°C° 0.2 mm 4 mps 757 mmHg 48%
    14:00 +36°C° 0.2 mm 4 mps 756 mmHg 48%
    15:00 +36°C° 0.2 mm 4 mps 755 mmHg 48%
    16:00 +35°C° 0 mm 4 mps 756 mmHg 54%
    17:00 +33°C° 0 mm 4 mps 756 mmHg 60%
    18:00 +32°C° 0 mm 4 mps 756 mmHg 66%
    19:00 +30°C° 0.1 mm 4 mps 757 mmHg 69%
    20:00 +30°C° 0.1 mm 4 mps 757 mmHg 72%
    21:00 +30°C° 0.1 mm 4 mps 758 mmHg 75%
    22:00 +29°C° 0 mm 4 mps 757 mmHg 77%
    23:00 +29°C° 0 mm 4 mps 757 mmHg 79%
    Show more